2024-173G

Last updated on Fri Oct 04 2024 00:02:05 GMT+0000 (Coordinated Universal Time)

1 61233U 24173G 24277.53307390 .00061655 00000+0 24394-2 0 9990 2 61233 97.4051 350.2464 0011508 244.6250 115.3797 15.25163781 1389
UTC large
Height (km)
Speed (km/s)
/
Latitude / Longitude
Inclination (degrees)
Orbital Period (minutes)
Azimuth
Elevation
Range (km)
Doppler Factor

Next 0 passes for location: London (51.5072 / 0.1276)

Sorry there are no passes over London.